Location: Ripley
(48.3812°N, 115.4473°W)
Time: 04:31:40
(UTC+00:00)

O/OREOS (USA 219) - Pass Details

Date: 30 June 2022
Orbit: 621 x 646 km, 72.0° (Epoch: 22 May)

Event Time Altitude Azimuth Distance (km) Brightness Sun altitude
Rises 08:29:11 0° 331° (NNW) 2,964 ? -17.8°
Reaches altitude 10° 08:31:29 10° 328° (NNW) 2,052 ? -17.7°
Maximum altitude 08:36:02 61° 249° (WSW) 737 ? -17.6°
Enters shadow 08:37:50 34° 183° (S) 1,057 ? -17.5°
